GW7281 Weather Reports


Display with metric or nautical units.
time (UTC)temp
F
wind
direction
speed
MPH
gust
MPH
rain 1hr
in
rain 24hr
in
rain mn
in
humidity
%
barometer
mb
20260504081507 48 26 10.0 18.0 0.00 0.00 0.00 52 1015.4
20260504050016 57 47 14.0 22.0 0.00 0.00 0.00 37 1010.2
20260504044531 56 15 9.0 18.0 0.00 0.00 0.00 37 1009.7
20260504043019 57 30 7.0 16.0 0.00 0.00 0.00 36 1009.2
20260504041514 58 28 10.0 14.0 0.00 0.00 0.00 35 1008.9
20260504040013 58 46 9.0 14.0 0.00 0.00 0.00 35 1008.8
20260504034522 59 28 9.0 14.0 0.00 0.00 0.00 35 1008.5
20260504033016 60 41 11.0 18.0 0.00 0.00 0.00 34 1007.9
20260504031515 61 56 13.0 19.0 0.00 0.00 0.00 32 1007.7
20260504030004 62 34 12.0 18.0 0.00 0.00 0.00 29 1007.4
20260504024505 63 40 8.0 12.0 0.00 0.00 0.00 24 1007.3
20260504023004 65 21 3.0 7.0 0.00 0.00 0.00 22 1007.2
20260504021504 67 5 4.0 9.0 0.00 0.00 0.00 21 1007.2
20260504020008 68 360 9.0 13.0 0.00 0.00 0.00 20 1007.2
20260504014507 70 351 7.0 13.0 0.00 0.00 0.00 19 1007.3
20260504013009 72 9 9.0 17.0 0.00 0.00 0.00 18 1007.2
20260504011504 73 11 10.0 16.0 0.00 0.00 0.00 18 1007.3
20260504010009 74 351 11.0 17.0 0.00 0.00 0.00 17 1007.3
20260504004511 74 338 10.0 18.0 0.00 0.00 0.00 17 1007.5
20260504003011 75 326 9.0 13.0 0.00 0.00 0.00 17 1007.7
20260504001511 75 5 11.0 20.0 0.00 0.00 0.00 16 1007.7
20260504000014 75 5 7.0 17.0 0.00 0.00 0.00 16 1007.7
20260503234516 75 341 13.0 17.0 0.00 0.00 0.00 16 1007.7
20260503233017 76 290 11.0 23.0 0.00 0.00 0.00 16 1007.8
20260503231518 75 352 12.0 21.0 0.00 0.00 0.00 16 1007.9
20260503230018 75 280 4.0 13.0 0.00 0.00 0.00 16 1008.1
20260503224519 75 317 16.0 21.0 0.00 0.00 0.00 16 1008.4
20260503223020 74 265 8.0 19.0 0.00 0.00 0.00 16 1008.5
20260503221531 74 304 12.0 22.0 0.00 0.00 0.00 17 1008.8
20260503220024 74 331 6.0 20.0 0.00 0.00 0.00 16 1008.7
20260503214526 74 300 14.0 18.0 0.00 0.00 0.00 17 1008.9
20260503213030 73 266 11.0 19.0 0.00 0.00 0.00 16 1009.3
20260503211522 73 344 12.0 19.0 0.00 0.00 0.00 17 1009.6
20260503210026 72 240 9.0 17.0 0.00 0.00 0.00 16 1009.7
20260503204527 72 263 9.0 15.0 0.00 0.00 0.00 18 1010.0
20260503203023 72 352 11.0 21.0 0.00 0.00 0.00 18 1010.3
20260503201530 72 9 10.0 19.0 0.00 0.00 0.00 17 1010.5
20260503200032 71 308 12.0 22.0 0.00 0.00 0.00 19 1010.6
20260503194510 71 300 14.0 20.0 0.00 0.00 0.00 19 1010.9
20260503193013 71 293 11.0 23.0 0.00 0.00 0.00 18 1011.2
20260503191515 70 264 12.0 23.0 0.00 0.00 0.00 17 1011.3
20260503190022 70 322 15.0 23.0 0.00 0.00 0.00 18 1011.5
20260503184522 71 252 11.0 25.0 0.00 0.00 0.00 19 1011.5
20260503183036 69 273 10.0 17.0 0.00 0.00 0.00 19 1011.7
20260503181528 69 267 11.0 19.0 0.00 0.00 0.00 20 1012.0
20260503180020 69 265 12.0 20.0 0.00 0.00 0.00 21 1012.2
20260503174521 68 309 13.0 19.0 0.00 0.00 0.00 23 1012.4
20260503173040 68 284 10.0 15.0 0.00 0.00 0.00 24 1012.5
20260503171524 66 288 10.0 13.0 0.00 0.00 0.00 29 1012.5